Regional Weather Roundup
Issued by NWS Little Rock, AR

Home | Current Version | Previous Version | Text Only | Print | Product List | Glossary Off
Versions: 1 2 3 4 5 6 7 8 9 10 11 12 13 14 15 16 17 18 19 20 21 22 23 24 25 26

000
ASUS44 KLZK 281905
RWRLZK

WEATHER ROUNDUP FOR ARKANSAS
NATIONAL WEATHER SERVICE LITTLE ROCK AR
200 PM CDT THU APR 28 2016

NOTE: "FAIR" INDICATES FEW OR NO CLOUDS BELOW 12,000 FEET WITH NO
SIGNIFICANT WEATHER AND/OR OBSTRUCTIONS TO VISIBILITY.

ARZ001-003-010-029-282000-
NORTHWEST ARKANSAS

CITY           SKY/WX    TMP DP  RH WIND       PRES   REMARKS
FAYETTEVILLE   SUNNY     73  44  35 VRB3      29.97R
FORT SMITH     SUNNY     75  41  29 E6        29.93F
HARRISON       SUNNY     72  44  36 VRB5      29.96S
BENTONVILLE    SUNNY     72  43  35 W3        29.98R
ROGERS         SUNNY     71  45  39 W6        29.98R
SILOAM SPGS    SUNNY     70  45  40 CALM      29.99R
HIGHFILL       SUNNY     72  46  39 VRB3      29.97R
SPRINGDALE     SUNNY     72  45  37 CALM      29.99R
$$

ARZ004-005-016-282000-
NORTH CENTRAL ARKANSAS

CITY           SKY/WX    TMP DP  RH WIND       PRES   REMARKS
BATESVILLE     SUNNY     79  46  31 W3        29.94F
FLIPPIN        SUNNY    N/A N/A N/A W5        29.91F
MTN HOME       SUNNY     74  42  31 NW6       29.93F
$$

ARZ040-041-282000-
WEST CENTRAL ARKANSAS

CITY           SKY/WX    TMP DP  RH WIND       PRES   REMARKS
MENA           SUNNY     81  52  36 E8        29.94F
MOUNT IDA      SUNNY     80  52  37 VRB3      29.92F
$$

ARZ009-017-025-026-028-282000-
NORTHEAST ARKANSAS

CITY           SKY/WX    TMP DP  RH WIND       PRES   REMARKS
CORNING          N/A     75  46  35 W13       29.93S
JONESBORO      SUNNY     78  44  29 W6        29.93F
NEWPORT        SUNNY     79  46  31 CALM      29.95S
WALNUT RIDGE   SUNNY     75  45  33 SW6       29.93S
BLYTHEVILLE    SUNNY     79  50  36 W8        29.93S
NW BLYTHEVILLE SUNNY     79  48  34 W10G18    29.92F
$$

ARZ022-023-033-042-044-282000-
CENTRAL ARKANSAS

CITY           SKY/WX    TMP DP  RH WIND       PRES   REMARKS
LITTLE ROCK    MOSUNNY   81  53  37 CALM      29.94S
N LITTLE ROCK    N/A     79  57  47 CALM      29.92F
JACKSONVILLE   SUNNY     79  51  38 W1        29.94S
SEARCY         SUNNY     78  53  41 VRB3      29.95F
HOT SPRINGS    SUNNY     81  48  31 CALM      29.93F
RUSSELLVILLE   SUNNY     78  44  29 CALM      29.93F
$$

ARZ036-282000-
EAST ARKANSAS

CITY           SKY/WX    TMP DP  RH WIND       PRES   REMARKS
WEST MEMPHIS   SUNNY     80  54  40 NW9       29.93S
$$

ARZ050-053-066-070-073-282000-
SOUTHWEST ARKANSAS

CITY           SKY/WX    TMP DP  RH WIND       PRES   REMARKS
ARKADELPHIA    FAIR      83  59  44 VRB3      29.93F
CAMDEN         SUNNY     84  46  26 CALM      29.92S
TEXARKANA      SUNNY     80  54  40 E6        29.91F
EL DORADO      SUNNY     83  54  36 NE7       29.93S
DE QUEEN       SUNNY     80  54  40 E9        29.89F
$$

ARZ056-057-069-282000-
SOUTHEAST ARKANSAS

CITY           SKY/WX    TMP DP  RH WIND       PRES   REMARKS
PINE BLUFF     SUNNY     81  54  39 N6        29.94S
STUTTGART      SUNNY     79  54  41 MISG      29.95S
MONTICELLO     SUNNY     83  52  34 CALM      29.92F

$$






USA.gov is the U.S. government's official web portal to all federal, state and local government web resources and services.